Tracking 19576 objects as of 17-Feb-2019
HD Live streaming from Space Station
objects crossing your sky now

MOLNIYA 3-8

Track MOLNIYA 3-8 now!
MOLNIYA 3-8 is classified as:


NORAD ID: 10455
Int'l Code: 1977-105A
Perigee: 1,182.6 km
Apogee: 39,179.8 km
Inclination: 62.2 °
Period: 717.6 minutes
Semi major axis: 26552 km
RCS: 13.5006 m2 (large)
Launch date: October 28, 1977
Source: Commonwealth of Independent States (former USSR) (CIS)
Launch site: PLESETSK MISSILE AND SPACE COMPLEX (PKMTR)
aabbcc
Your satellite tracking list
Your tracking list is empty




NASA's NSSDC Master Catalog

Two Line Element Set (TLE):
1 10455U 77105A   19047.32681334 -.00000996  00000-0  16036-2 0  9999
2 10455  62.1650 178.1523 7155172 272.9715  14.7077  2.00655965302655
Source of the keplerian elements: AFSPC